map of LFBC home
Great Circle Mapper logo
LFBC - Airport
Location
City:  Cazaux, Aquitaine, France
ICAO:LFBC

Details
Type:Airport (Aerodrome, Airfield)
Use:Military
Latitude:4432'06"N (44.534883)
Longitude:107'53"W (-1.131449)
Elevation:84 ft (26 m)
Variation:0.41W (WMM2015 magnetic declination)
0.13 annual change
Runways:1
Longest:7900 × 148 ft (2408 × 45 m)

Time
Time Zone:UTC+1 (DST+2)
Local Time:

Weather
METAR:LFBC 060630Z AUTO 14004KT 1100 1000 R24/1600U BR NSC 02/02 Q1017
TAF:LFBC 060500Z 0606/0706 14008KT CAVOK
TEMPO 0606/0608 BKN010
BECMG 0609/0612 14015G25KT
BECMG 0621/0624 23020G30KT 4000 RA BKN020
BECMG 0702/0704 29015G25KT CAVOK

Related Locations
Nearby:
Farthest:CHT: 12203 mi / 19638 km
Waitangi [Tuuta], Chatham Islands, NZ

Find:

   beyond  
but within

Other Information
Maps:
NOTAMs:
Links:
Sources:

  
flag of France
flag of Aquitaine
  

Sectional Chart

Flight Planning
at skyvector.com

Satellite Image

Google Maps Satellite view

 

Copyright © 2004-2016 Karl L. Swartz. All rights reserved.
The Great Circle Mapper name and logo are trademarks of the Great Circle Mapper.
All other trademarks mentioned herein belong to their respective owners.
Please see credits for attibutions and further copyright information.

  Follow gcmap on Facebook Follow gcmap on Twitter Follow gcmap on Google+ GCmap on LinkedIn

hCard Microformat

Geo Microformat